パンスターズ彗星

386P/PanSTARRS (2003)

English version
Home page
Updated on May 4, 2021

---------------------------------------------------------------------

・ プロフィール

・ 軌道要素

Epoch 2003 Dec. 27.0 TT = JDT 2453000.5
T 2003 Dec. 21.14487 TT                                 MPC
q   2.5483394            (2000.0)            P               Q
n   0.11449489     Peri.  348.52822     -0.58760455     -0.78788250
a   4.2002839      Node   137.10178     +0.76215174     -0.61541910
e   0.3932935      Incl.   15.70793     +0.27174550     +0.02237166
P   8.61
From 59 observations 2004 Feb. 14-2012 Jan. 26, mean residual 0".5.

・ 光度変化

        m1 = 14.5 + 5 logΔ + 10.0 log r

---------------------------------------------------------------------

軌道要素はM.P.E.C. 2012-B78に掲載されたものです。
光度グラフはComet for Windowsで作成したものです。

---------------------------------------------------------------------

Copyright(C) Seiichi Yoshida (comet@aerith.net). All rights reserved.